CW9648 Weather Reports


Display with metric or nautical units.
time (UTC)temp
F
wind
direction
speed
MPH
gust
MPH
rain 1hr
in
rain 24hr
in
rain mn
in
humidity
%
barometer
mb
20260509222504 86 29 1.0 3.0 0.00 0.01 0.01 76 1008.8
20260509222004 86 73 1.0 2.0 0.00 0.01 0.01 76 1008.8
20260509221504 86 119 1.0 2.0 0.00 0.01 0.01 74 1008.8
20260509221004 86 89 1.0 2.0 0.00 0.01 0.01 74 1008.7
20260509220504 87 52 1.0 3.0 0.00 0.01 0.01 74 1008.6
20260509220004 86 326 1.0 3.0 0.00 0.01 0.01 74 1008.7
20260509215504 86 61 0.0 2.0 0.00 0.01 0.01 78 1008.7
20260509215004 85 41 1.0 2.0 0.00 0.01 0.01 78 1008.8
20260509214504 85 38 1.0 3.0 0.00 0.01 0.01 78 1008.7
20260509214004 85 353 2.0 4.0 0.00 0.01 0.01 77 1008.8
20260509213504 85 336 2.0 5.0 0.00 0.01 0.01 76 1008.8
20260509213004 86 335 1.0 5.0 0.00 0.01 0.01 78 1008.7
20260509212525 85 331 1.0 3.0 0.00 0.01 0.01 78 1008.9
20260509212004 84 329 1.0 2.0 0.00 0.01 0.01 80 1008.8
20260509211504 84 163 0.0 2.0 0.00 0.01 0.01 79 1009.0
20260509211004 84 145 1.0 2.0 0.00 0.01 0.01 80 1009.1
20260509210504 85 94 1.0 2.0 0.00 0.01 0.01 80 1009.1
20260509210004 84 84 1.0 3.0 0.00 0.01 0.01 81 1009.2
20260509205504 84 84 1.0 3.0 0.00 0.01 0.01 82 1009.4
20260509205004 83 10 1.0 2.0 0.00 0.01 0.01 83 1009.4
20260509204504 83 355 1.0 3.0 0.00 0.01 0.01 83 1009.4
20260509204004 83 349 1.0 3.0 0.00 0.01 0.01 81 1009.6
20260509203504 83 216 1.0 4.0 0.00 0.01 0.01 79 1009.7
20260509203004 83 178 2.0 5.0 0.00 0.01 0.01 79 1009.8
20260509202504 84 130 2.0 5.0 0.00 0.01 0.01 79 1009.8
20260509202025 84 109 2.0 5.0 0.00 0.01 0.01 80 1010.0
20260509201504 83 117 2.0 4.0 0.00 0.01 0.01 83 1010.0
20260509201004 82 126 2.0 4.0 0.00 0.01 0.01 85 1010.1
20260509200504 81 21 2.0 3.0 0.00 0.01 0.01 87 1010.0
20260509200025 81 358 2.0 3.0 0.00 0.01 0.01 86 1010.1
20260509195525 82 38 2.0 3.0 0.00 0.01 0.01 85 1010.2
20260509195004 82 143 1.0 5.0 0.00 0.01 0.01 83 1010.2
20260509194504 82 170 2.0 5.0 0.00 0.01 0.01 83 1010.1
20260509194004 82 172 2.0 5.0 0.00 0.01 0.01 84 1010.2
20260509193504 82 108 1.0 3.0 0.00 0.01 0.01 85 1010.2
20260509193004 81 87 1.0 3.0 0.00 0.01 0.01 85 1010.2
20260509192504 81 114 1.0 3.0 0.00 0.01 0.01 85 1010.3
20260509192004 81 118 1.0 2.0 0.00 0.01 0.01 85 1010.3
20260509191504 81 96 1.0 2.0 0.00 0.01 0.01 86 1010.3
20260509191004 81 316 1.0 4.0 0.00 0.01 0.01 85 1010.4
20260509190504 81 287 2.0 6.0 0.00 0.01 0.01 85 1010.5
20260509190004 81 216 2.0 6.0 0.00 0.01 0.01 87 1010.5
20260509185504 81 271 1.0 3.0 0.00 0.01 0.01 87 1010.6
20260509185025 80 304 1.0 3.0 0.00 0.01 0.01 88 1010.7
20260509184504 80 35 1.0 4.0 0.00 0.01 0.01 90 1010.6
20260509184004 79 22 1.0 4.0 0.00 0.01 0.01 91 1010.7
20260509183525 78 1 2.0 4.0 0.00 0.01 0.01 92 1010.8
20260509183004 78 1 2.0 4.0 0.00 0.01 0.01 92 1010.9
20260509182504 78 2 2.0 3.0 0.00 0.01 0.01 92 1011.0
20260509182004 77 343 2.0 3.0 0.00 0.01 0.01 92 1011.0
20260509181525 77 341 2.0 3.0 0.00 0.01 0.01 91 1011.1
20260509181004 77 8 2.0 3.0 0.00 0.01 0.01 91 1011.0
20260509180525 77 12 2.0 4.0 0.00 0.01 0.01 90 1011.2
20260509180004 78 348 2.0 5.0 0.00 0.01 0.01 89 1011.2
20260509175525 77 350 2.0 5.0 0.00 0.01 0.01 88 1011.3
20260509175004 77 13 1.0 4.0 0.00 0.01 0.01 87 1011.4
20260509174504 77 20 1.0 4.0 0.00 0.01 0.01 86 1011.4
20260509174004 77 81 1.0 3.0 0.00 0.01 0.01 86 1011.3
20260509173504 76 137 1.0 4.0 0.00 0.01 0.01 85 1011.4
20260509173004 76 153 1.0 4.0 0.00 0.01 0.01 85 1011.4
20260509172504 76 4 0.0 2.0 0.00 0.01 0.01 85 1011.5
20260509172004 75 319 0.0 2.0 0.00 0.01 0.01 85 1011.5
20260509171504 75 248 1.0 3.0 0.00 0.01 0.01 85 1011.6
20260509171004 75 253 1.0 3.0 0.00 0.01 0.01 84 1011.6
20260509170504 75 61 1.0 3.0 0.00 0.01 0.01 84 1011.8
20260509170025 74 89 1.0 3.0 0.00 0.04 0.01 84 1012.0
20260509165504 74 206 0.0 2.0 0.00 0.05 0.01 84 1012.1
20260509165004 74 237 0.0 2.0 0.00 0.05 0.01 84 1012.1
20260509164525 74 226 1.0 2.0 0.00 0.05 0.01 84 1012.2
20260509164004 74 197 1.0 2.0 0.00 0.06 0.01 84 1012.2
20260509163504 74 183 1.0 3.0 0.00 0.07 0.01 84 1012.3
20260509163004 74 214 1.0 3.0 0.00 0.07 0.01 84 1012.3
20260509162504 74 211 1.0 4.0 0.00 0.08 0.01 84 1012.3
20260509162004 74 169 2.0 5.0 0.00 0.19 0.01 84 1012.3
20260509161504 74 163 2.0 5.0 0.00 0.19 0.01 84 1012.2
20260509161025 74 166 1.0 5.0 0.00 0.20 0.01 84 1012.3
20260509160504 74 167 2.0 5.0 0.00 0.21 0.01 84 1012.3
20260509160004 74 161 2.0 5.0 0.00 0.24 0.01 84 1012.2
20260509155504 74 156 2.0 4.0 0.00 0.25 0.01 84 1011.9
20260509155004 74 143 1.0 4.0 0.00 0.26 0.01 84 1011.8
20260509154504 74 12 1.0 2.0 0.00 0.26 0.01 84 1011.9
20260509154025 74 319 1.0 4.0 0.00 0.27 0.01 84 1011.8
20260509153504 74 256 2.0 5.0 0.00 0.28 0.01 84 1011.5
20260509153004 74 171 3.0 5.0 0.00 0.29 0.01 84 1011.4
20260509152504 73 165 2.0 5.0 0.00 0.29 0.01 84 1011.2
20260509152025 73 178 1.0 4.0 0.00 0.29 0.01 84 1011.2
20260509151504 73 167 1.0 2.0 0.00 0.29 0.01 84 1011.2
20260509151025 73 151 0.0 2.0 0.00 0.29 0.01 84 1011.3
20260509150504 73 131 0.0 2.0 0.00 0.29 0.01 84 1011.4
20260509150004 73 0 0.0 0.0 0.00 0.29 0.01 84 1011.3
20260509145504 73 315 0.0 1.0 0.00 0.30 0.01 84 1011.4
20260509145004 72 325 0.0 2.0 0.00 0.31 0.01 84 1011.4
20260509144504 72 328 0.0 2.0 0.00 0.31 0.01 84 1011.4
20260509144004 72 347 0.0 1.0 0.00 0.32 0.01 84 1011.3
20260509143504 72 347 0.0 1.0 0.00 0.33 0.01 84 1011.3
20260509143004 72 347 0.0 2.0 0.00 0.34 0.01 85 1011.5
20260509142504 72 14 1.0 2.0 0.00 0.35 0.01 85 1011.6
20260509142004 72 76 0.0 2.0 0.00 0.35 0.01 85 1011.6
20260509141504 72 107 0.0 1.0 0.00 0.36 0.01 85 1011.7
20260509141004 72 0 0.0 0.0 0.00 0.36 0.01 85 1011.8
20260509140504 72 0 0.0 0.0 0.00 0.37 0.01 85 1011.8
20260509140005 72 107 0.0 1.0 0.00 0.38 0.01 85 1011.9
20260509135504 72 107 0.0 1.0 0.00 0.38 0.01 85 1011.9
20260509135004 72 107 0.0 1.0 0.00 0.40 0.01 85 1011.8
20260509134525 72 107 0.0 1.0 0.00 0.42 0.01 85 1012.0
20260509134004 72 182 0.0 1.0 0.00 0.42 0.01 85 1011.9
20260509133504 72 182 0.0 1.0 0.00 0.42 0.01 85 1012.0
20260509133004 72 185 0.0 2.0 0.00 0.42 0.01 85 1012.0
20260509132504 72 187 0.0 2.0 0.00 0.42 0.01 85 1012.0
20260509132004 72 188 0.0 1.0 0.00 0.42 0.01 85 1011.9
20260509131504 72 169 0.0 3.0 0.00 0.42 0.01 85 1011.9
20260509131004 72 168 1.0 3.0 0.00 0.42 0.01 85 1011.8
20260509130504 72 165 1.0 3.0 0.00 0.42 0.01 85 1011.5
20260509130004 72 165 1.0 2.0 0.00 0.42 0.01 85 1011.6
20260509125504 71 192 0.0 1.0 0.00 0.42 0.01 85 1011.5
20260509125004 71 225 0.0 1.0 0.00 0.42 0.01 85 1011.5
20260509124504 71 170 1.0 3.0 0.00 0.42 0.01 86 1011.4
20260509124004 71 164 1.0 4.0 0.00 0.42 0.01 86 1011.3
20260509123525 71 160 1.0 4.0 0.00 0.42 0.01 86 1011.3
20260509123004 71 162 1.0 3.0 0.00 0.42 0.01 86 1011.4
20260509122504 71 163 0.0 3.0 0.00 0.42 0.01 86 1011.3
20260509122004 71 0 0.0 0.0 0.00 0.42 0.01 86 1011.3
20260509121504 71 324 0.0 1.0 0.00 0.42 0.01 86 1011.2
20260509121004 71 324 0.0 1.0 0.00 0.42 0.01 86 1011.2
20260509120504 70 0 0.0 0.0 0.00 0.42 0.01 86 1011.2
20260509120004 70 0 0.0 0.0 0.00 0.42 0.01 86 1011.2
20260509115504 70 0 0.0 0.0 0.00 0.42 0.01 86 1011.0
20260509115004 70 0 0.0 0.0 0.00 0.42 0.01 86 1011.2
20260509114504 70 0 0.0 0.0 0.00 0.42 0.01 87 1011.2
20260509114004 70 0 0.0 0.0 0.00 0.42 0.01 87 1011.1
20260509113504 70 0 0.0 0.0 0.00 0.42 0.01 87 1011.3
20260509113004 70 0 0.0 0.0 0.00 0.42 0.01 87 1011.1
20260509112504 70 0 0.0 0.0 0.00 0.42 0.01 87 1011.2
20260509112004 70 320 0.0 2.0 0.00 0.42 0.01 87 1011.3
20260509111504 70 333 1.0 2.0 0.00 0.42 0.01 87 1011.3
20260509111004 70 346 1.0 2.0 0.00 0.42 0.01 87 1011.2
20260509110525 70 358 1.0 2.0 0.00 0.42 0.01 87 1011.2
20260509110025 70 15 1.0 2.0 0.00 0.42 0.01 87 1011.0
20260509105504 70 37 1.0 2.0 0.00 0.42 0.01 87 1011.1
20260509105004 70 134 0.0 1.0 0.00 0.42 0.01 87 1010.9
20260509104504 70 168 0.0 2.0 0.00 0.42 0.01 87 1010.8
20260509104004 70 170 1.0 4.0 0.00 0.42 0.01 87 1010.7
20260509103504 70 170 1.0 4.0 0.01 0.42 0.01 87 1010.5
20260509103004 70 172 0.0 3.0 0.01 0.42 0.01 88 1010.6
20260509102504 70 0 0.0 0.0 0.01 0.42 0.01 88 1010.7
20260509102004 70 0 0.0 0.0 0.01 0.42 0.01 88 1010.8
20260509101504 70 0 0.0 0.0 0.01 0.42 0.01 88 1010.7
20260509101025 70 0 0.0 0.0 0.01 0.42 0.01 88 1010.8
20260509100504 70 0 0.0 0.0 0.01 0.42 0.01 88 1010.8
20260509100005 70 0 0.0 0.0 0.01 0.42 0.01 88 1010.9
20260509095503 70 0 0.0 0.0 0.01 0.42 0.01 88 1010.8
20260509095004 70 0 0.0 0.0 0.01 0.42 0.01 88 1010.7
20260509094503 70 0 0.0 0.0 0.01 0.42 0.01 88 1010.7
20260509094025 70 0 0.0 0.0 0.01 0.42 0.01 88 1010.7
20260509093504 70 0 0.0 0.0 0.00 0.41 0.00 88 1010.8
20260509093004 70 0 0.0 0.0 0.00 0.41 0.00 89 1010.9
20260509092504 70 0 0.0 0.0 0.00 0.41 0.00 89 1010.9
20260509092004 70 0 0.0 0.0 0.00 0.41 0.00 89 1010.9
20260509091504 70 0 0.0 0.0 0.00 0.41 0.00 89 1011.0
20260509091004 70 0 0.0 0.0 0.00 0.41 0.00 89 1011.0
20260509090525 70 0 0.0 0.0 0.00 0.41 0.00 89 1011.1
20260509090004 70 0 0.0 0.0 0.00 0.41 0.00 89 1011.1
20260509085504 70 0 0.0 0.0 0.00 0.41 0.00 89 1011.0
20260509085004 70 0 0.0 0.0 0.00 0.41 0.00 89 1010.8
20260509084504 70 0 0.0 0.0 0.00 0.41 0.00 89 1010.5
20260509084003 70 0 0.0 0.0 0.00 0.41 0.00 90 1010.4
20260509083504 70 0 0.0 0.0 0.00 0.41 0.00 90 1010.7
20260509083004 70 0 0.0 0.0 0.00 0.41 0.00 90 1010.8
20260509082504 70 17 0.0 2.0 0.00 0.41 0.00 90 1010.8
20260509082004 70 17 1.0 2.0 0.00 0.41 0.00 90 1010.9
20260509081504 70 17 0.0 2.0 0.00 0.41 0.00 90 1011.0
20260509081024 70 0 0.0 0.0 0.00 0.41 0.00 90 1011.0
20260509080504 70 0 0.0 0.0 0.00 0.41 0.00 90 1011.2
20260509080004 70 0 0.0 0.0 0.00 0.41 0.00 90 1011.2
20260509075504 70 0 0.0 0.0 0.00 0.41 0.00 90 1011.4
20260509075003 70 0 0.0 0.0 0.00 0.41 0.00 91 1011.4
20260509074504 70 17 0.0 1.0 0.00 0.41 0.00 91 1011.4
20260509074004 70 17 0.0 1.0 0.00 0.41 0.00 91 1011.4
20260509073525 70 17 0.0 1.0 0.00 0.41 0.00 91 1011.4
20260509073004 70 0 0.0 0.0 0.00 0.41 0.00 91 1011.5
20260509072503 70 0 0.0 0.0 0.00 0.41 0.00 91 1011.5
20260509072003 70 0 0.0 0.0 0.00 0.41 0.00 91 1011.5
20260509071504 70 0 0.0 0.0 0.00 0.41 0.00 91 1011.5
20260509071003 70 0 0.0 0.0 0.00 0.41 0.00 91 1011.5
20260509070504 70 0 0.0 0.0 0.00 0.41 0.00 92 1011.5
20260509070003 70 17 0.0 1.0 0.00 0.41 0.00 92 1011.5
20260509065504 70 17 0.0 2.0 0.00 0.41 0.00 92 1011.6
20260509065003 70 58 1.0 2.0 0.00 0.41 0.00 92 1011.6
20260509064504 70 125 1.0 2.0 0.00 0.41 0.00 92 1011.5
20260509064004 70 134 0.0 2.0 0.00 0.41 0.00 92 1011.6
20260509063524 70 135 0.0 1.0 0.00 0.41 0.00 92 1011.8
20260509063003 70 73 0.0 1.0 0.00 0.41 0.00 92 1011.6
20260509062524 70 78 0.0 2.0 0.00 0.41 0.00 92 1011.6
20260509062024 70 153 0.0 3.0 0.00 0.41 0.00 92 1011.6
20260509061504 70 188 1.0 3.0 0.00 0.41 0.00 93 1011.4
20260509061003 70 193 1.0 3.0 0.00 0.41 0.00 93 1011.3
20260509060503 70 197 1.0 3.0 0.00 0.41 0.00 93 1011.5
20260509060004 70 204 0.0 2.0 0.00 0.41 0.00 93 1011.6
20260509055503 70 190 0.0 2.0 0.00 0.41 0.00 93 1011.6
20260509055004 70 205 0.0 2.0 0.00 0.41 0.00 93 1011.6
20260509054504 70 228 0.0 1.0 0.00 0.41 0.00 93 1011.6
20260509054003 70 222 1.0 2.0 0.00 0.41 0.00 93 1011.6
20260509053504 70 219 1.0 2.0 0.00 0.41 0.00 93 1011.5
20260509053004 70 205 0.0 2.0 0.00 0.41 0.00 93 1011.4
20260509052503 70 205 1.0 2.0 0.00 0.41 0.00 93 1011.5
20260509052004 70 215 1.0 2.0 0.00 0.41 0.00 93 1011.5
20260509051504 70 193 1.0 4.0 0.00 0.41 0.00 93 1011.5
20260509051004 70 182 1.0 4.0 0.00 0.41 0.00 93 1011.4
20260509050503 70 189 1.0 4.0 0.00 0.41 0.00 93 1011.4
20260509050003 70 197 1.0 4.0 0.00 0.41 0.00 93 1011.4
20260509045503 70 195 1.0 4.0 0.00 0.41 0.41 93 1011.5
20260509045003 70 193 2.0 6.0 0.00 0.41 0.41 93 1011.5
20260509044525 70 183 1.0 6.0 0.00 0.41 0.41 93 1011.5
20260509044003 70 176 1.0 4.0 0.00 0.41 0.41 93 1011.6
20260509043503 70 171 1.0 4.0 0.00 0.41 0.41 93 1011.5
20260509043004 70 159 2.0 5.0 0.00 0.41 0.41 93 1011.6
20260509042503 70 157 2.0 5.0 0.00 0.41 0.41 93 1011.5
20260509042004 70 162 2.0 4.0 0.00 0.41 0.41 93 1011.6
20260509041525 70 162 1.0 4.0 0.00 0.41 0.41 93 1011.5
20260509041003 70 156 1.0 2.0 0.00 0.41 0.41 93 1011.6
20260509040524 70 150 0.0 2.0 0.00 0.41 0.41 93 1011.5
20260509040004 70 137 0.0 1.0 0.00 0.41 0.41 93 1011.4
20260509035504 70 146 0.0 2.0 0.00 0.41 0.41 93 1011.3
20260509035024 70 119 1.0 5.0 0.00 0.41 0.41 93 1011.3
20260509034503 70 132 1.0 5.0 0.00 0.41 0.41 93 1011.2
20260509034004 70 163 1.0 4.0 0.00 0.41 0.41 93 1011.1
20260509033503 70 161 1.0 5.0 0.00 0.41 0.41 93 1011.2
20260509033003 70 153 1.0 5.0 0.00 0.41 0.41 93 1011.2
20260509032503 70 158 1.0 3.0 0.00 0.41 0.41 93 1011.2
20260509032003 71 156 1.0 4.0 0.00 0.41 0.41 93 1011.1
20260509031503 71 161 2.0 6.0 0.00 0.41 0.41 93 1011.1
20260509031003 71 162 2.0 6.0 0.00 0.41 0.41 93 1011.1
20260509030503 71 147 1.0 4.0 0.00 0.41 0.41 93 1011.2
20260509030025 71 132 1.0 4.0 0.00 0.41 0.41 93 1011.2
20260509025503 71 130 1.0 4.0 0.00 0.41 0.41 93 1011.0
20260509025003 71 125 1.0 3.0 0.00 0.41 0.41 93 1011.0
20260509024503 71 128 2.0 3.0 0.00 0.41 0.41 93 1010.9
20260509024003 70 135 1.0 3.0 0.00 0.41 0.41 93 1010.9
20260509023503 70 140 1.0 3.0 0.00 0.41 0.41 93 1010.8
20260509023024 70 156 1.0 2.0 0.00 0.41 0.41 93 1010.8
20260509022503 70 135 1.0 3.0 0.00 0.41 0.41 93 1010.5
20260509022003 70 121 1.0 4.0 0.00 0.41 0.41 93 1010.5
20260509021524 70 124 1.0 4.0 0.00 0.41 0.41 93 1010.4
20260509021024 70 135 1.0 4.0 0.00 0.41 0.41 93 1010.3
20260509020503 70 164 1.0 4.0 0.00 0.41 0.41 93 1010.4
20260509020003 70 171 1.0 4.0 0.00 0.41 0.41 93 1010.4
20260509015524 70 171 1.0 4.0 0.00 0.41 0.41 93 1010.2
20260509015003 70 181 1.0 4.0 0.00 0.41 0.41 93 1010.2
20260509014503 70 193 1.0 3.0 0.00 0.41 0.41 93 1010.2
20260509014003 70 197 1.0 3.0 0.00 0.41 0.41 93 1010.3
20260509013503 70 191 0.0 2.0 0.00 0.41 0.41 93 1010.3
20260509013003 71 0 0.0 0.0 0.00 0.41 0.41 93 1010.1
20260509012503 71 0 0.0 0.0 0.00 0.41 0.41 93 1010.2
20260509012003 71 0 0.0 0.0 0.00 0.41 0.41 93 1010.2
20260509011503 71 162 0.0 1.0 0.00 0.41 0.41 92 1010.3
20260509011024 71 162 0.0 1.0 0.00 0.41 0.41 92 1010.4
20260509010503 72 0 0.0 0.0 0.00 0.41 0.41 92 1010.5
20260509010004 72 162 0.0 1.0 0.00 0.41 0.41 92 1010.5
20260509005503 72 162 0.0 1.0 0.00 0.41 0.41 92 1010.6
20260509005003 72 122 0.0 1.0 0.00 0.41 0.41 92 1010.4
20260509004503 72 129 0.0 1.0 0.00 0.41 0.41 91 1010.4
20260509004003 73 141 0.0 2.0 0.00 0.41 0.41 91 1010.3
20260509003504 73 160 1.0 2.0 0.00 0.41 0.41 91 1010.5
20260509003024 73 133 1.0 2.0 0.00 0.41 0.41 91 1010.7
20260509002503 73 95 1.0 2.0 0.00 0.41 0.41 91 1010.7
20260509002024 73 170 1.0 2.0 0.00 0.41 0.41 91 1010.7
20260509001503 73 181 1.0 2.0 0.00 0.41 0.41 91 1010.9
20260509001004 73 181 0.0 2.0 0.00 0.41 0.41 90 1011.1
20260509000504 73 181 1.0 2.0 0.00 0.41 0.41 90 1011.2
20260509000004 73 169 1.0 2.0 0.00 0.41 0.41 90 1011.2
20260508235503 73 167 1.0 2.0 0.00 0.41 0.41 89 1011.1
20260508235003 74 16 1.0 3.0 0.00 0.41 0.41 89 1011.2
20260508234503 74 359 1.0 3.0 0.00 0.41 0.41 89 1011.1
20260508234003 74 360 0.0 2.0 0.00 0.41 0.41 89 1011.0
20260508233503 74 272 1.0 2.0 0.00 0.41 0.41 89 1011.0
20260508233003 74 189 0.0 2.0 0.00 0.41 0.41 88 1011.1
20260508232504 74 124 0.0 2.0 0.00 0.41 0.41 89 1010.9
20260508232003 74 142 1.0 4.0 0.00 0.41 0.41 88 1011.0
20260508231503 74 143 1.0 4.0 0.00 0.41 0.41 88 1011.1
20260508231003 74 66 1.0 3.0 0.00 0.41 0.41 88 1011.1
20260508230503 74 354 1.0 3.0 0.00 0.41 0.41 89 1011.1
20260508230024 74 349 1.0 2.0 0.00 0.41 0.41 88 1011.0
20260508225503 74 350 1.0 2.0 0.00 0.41 0.41 88 1011.0
20260508225003 74 357 1.0 4.0 0.00 0.41 0.41 88 1010.9
20260508224503 74 359 1.0 4.0 0.00 0.41 0.41 88 1011.0
20260508224003 74 347 1.0 2.0 0.00 0.41 0.41 87 1011.1
20260508223524 75 262 1.0 2.0 0.00 0.41 0.41 87 1011.0
20260508223003 75 204 1.0 3.0 0.00 0.41 0.41 87 1010.9